Powrót do katalogu

STARLINK-36728

AktywnyŁącznośćVLEO
NORAD 67927·PAYLOAD·🇺🇸 United States

Wystrzelony Feb 22, 2026 z Vandenberg Space Force Base

Loading…

Następne Przeloty (najbliższe 24 godziny)

TLE

ŚwieżeSource: CelesTrak SupGP

Epoka: Sep 14, 2026, 22:50 UTC

1 67927C 26036Z   26257.95187500  .00029731  00000+0  10771-2 0  2571
2 67927  43.0023 256.3017 0001393 259.0788 275.4677 15.27555146    14

Śledź STARLINK-36728 w czasie rzeczywistym z AllMySat

Download on the App Store